Theta_e
358 357 356 355 354 352 351 351 351 351 351 350 350 350 350 350 349 349 348 346 344 345 341 341 341 340 340 339 339 339 338 338 339 335 335 337 334 330 329 331 329 324 322
357 355 353 352 351 350 349 349 349 349 350 350 350 350 349 348 347 346 343 342 341 338 341 342 341 341 341 341 340 339 339 338 335 330 329 329 334 329 327 330 330 326 327
354 352 352 351 349 348 347 347 348 348 348 348 346 346 347 344 342 339 340 339 337 337 338 340 341 341 338 337 338 337 335 334 333 331 330 331 334 331 333 334 332 330 328
353 352 351 351 349 347 346 346 347 347 344 343 342 343 341 340 340 340 338 336 337 337 338 341 339 339 339 340 339 338 338 334 333 334 331 330 331 331 334 334 334 332 328
354 353 352 352 349 347 347 347 347 343 341 339 335 335 340 339 339 336 335 337 338 338 338 340 339 339 338 336 334 336 339 337 335 332 332 332 334 332 332 331 330 330 327
353 352 352 352 349 347 346 346 342 340 338 336 335 336 337 340 334 334 336 336 338 338 338 338 337 336 332 334 332 335 337 339 337 338 337 336 334 333 331 331 328 327 326
352 352 352 351 349 347 345 345 340 338 335 334 337 339 339 339 334 334 335 335 335 336 337 337 337 334 330 330 326 327 328 332 333 336 336 335 335 333 331 328 327 326 323
350 350 351 350 349 346 344 343 340 339 337 340 337 340 339 339 335 333 334 335 335 335 336 337 336 335 335 333 331 330 330 328 329 332 336 336 336 332 328 328 328 329 329
348 349 350 349 348 346 344 344 340 338 338 337 336 338 339 339 338 333 335 335 335 334 333 335 336 335 336 333 334 333 334 332 328 330 333 333 332 332 331 329 330 329 328
348 349 350 349 347 345 343 341 342 340 339 338 340 339 336 336 334 333 334 335 333 333 333 334 334 335 335 332 335 334 334 333 329 326 327 326 327 329 330 332 329 327 326
348 349 350 348 346 344 342 341 341 338 339 339 340 339 339 336 338 335 333 334 334 335 335 334 333 333 334 331 331 334 334 332 331 331 330 327 325 327 326 327 329 328 326
349 349 349 348 346 342 343 340 340 340 337 337 337 338 339 336 336 336 334 334 333 334 335 333 333 332 332 332 329 332 331 329 329 327 326 325 324 324 324 324 325 325 324
347 348 348 347 345 342 342 339 339 339 339 338 338 337 336 336 336 336 335 334 334 334 334 332 334 332 331 330 330 330 330 329 326 325 325 324 324 324 325 326 327 329 328
345 347 347 334 324 338 341 339 337 337 337 337 337 336 336 335 334 332 333 333 332 332 334 333 332 331 330 330 329 327 328 327 325 324 323 324 324 324 326 326 326 326 326
344 345 336 333 341 340 341 338 337 336 336 336 337 337 337 336 336 334 333 332 334 333 333 332 331 331 331 330 328 327 326 325 325 324 324 324 324 325 325 326 325 325 325
341 342 343 342 338 337 338 338 336 336 335 335 335 334 334 333 333 333 333 332 332 332 332 333 332 331 330 328 328 327 326 325 325 324 323 324 325 325 325 326 326 326 325
341 343 342 341 333 337 338 338 338 335 334 334 333 332 331 332 330 330 331 331 331 330 330 330 328 326 325 324 322 322 322 322 324 323 323 325 325 325 325 326 325 327 327
339 340 340 340 336 336 337 338 338 339 336 334 332 331 331 330 329 329 328 328 326 326 329 329 328 325 325 324 325 326 326 326 325 324 322 322 324 324 324 324 324 326 327
338 338 339 338 337 336 338 339 338 337 336 334 332 331 331 330 329 328 328 328 328 327 326 325 324 324 325 326 328 328 329 329 328 329 329 327 324 323 324 324 323 324 326
337 336 337 339 339 336 337 338 338 337 337 335 331 331 332 327 328 327 326 329 328 326 325 325 325 326 327 328 328 328 329 330 330 329 329 329 329 329 328 326 325 325 324
338 337 337 336 337 338 337 336 336 337 336 336 332 330 330 331 329 328 327 327 327 325 325 326 326 327 328 328 329 329 330 331 330 331 331 330 330 329 328 328 328 327 326
334 336 338 337 336 335 335 335 334 334 336 336 334 330 329 329 327 326 326 326 326 326 326 327 328 328 328 328 330 331 330 330 331 331 330 331 331 331 331 330 329 328 329
336 340 338 337 336 336 334 335 333 332 333 334 335 334 328 328 328 328 329 330 330 331 331 331 331 330 330 330 331 331 332 331 331 332 331 330 330 330 331 332 331 330 329
336 337 338 337 336 336 335 333 332 330 330 330 331 333 334 332 331 329 329 330 332 332 332 332 331 331 331 331 332 333 331 331 331 331 330 331 330 330 330 332 333 332 331
335 336 336 337 336 336 332 331 331 332 332 331 331 330 330 330 331 332 331 331 332 333 333 333 333 333 333 334 333 330 329 328 328 329 329 329 329 330 331 332 333 332 332
332 334 333 334 335 334 331 333 334 333 332 332 329 329 328 325 326 329 332 334 335 335 335 333 332 331 329 328 327 326 327 327 328 328 327 326 327 328 329 329 331 332 332
Wind_Speed
6 6 6 7 10 12 15 18 20 22 22 23 22 21 22 22 21 20 20 18 20 17 18 19 22 22 17 25 29 28 25 23 12 8 18 22 23 20 16 15 11 12 12
7 6 7 8 10 12 14 16 18 20 19 19 19 18 20 19 17 17 16 15 17 17 22 22 27 26 24 25 29 28 27 24 15 11 10 9 23 22 18 15 12 11 12
8 8 8 9 10 12 13 15 16 16 16 15 16 17 14 13 14 15 14 17 18 19 20 18 15 16 14 14 19 21 21 21 16 12 9 12 21 22 18 17 15 12 11
9 10 11 11 11 12 13 14 14 13 13 16 16 16 12 12 14 14 13 15 15 13 12 9 11 13 12 13 16 16 17 16 18 14 10 12 14 19 15 14 13 13 12
11 13 14 12 11 12 13 13 12 12 13 12 11 12 12 14 12 10 11 10 8 6 5 7 8 8 9 11 11 12 16 18 19 19 15 12 17 16 18 17 14 15 15
13 15 14 13 12 12 12 11 10 13 13 11 10 8 11 12 13 14 12 11 9 8 8 9 9 11 13 16 10 14 15 17 17 21 22 19 19 19 20 21 18 17 14
14 14 15 14 13 11 11 11 12 13 14 18 13 15 14 15 15 16 13 11 11 9 8 10 11 12 12 13 13 10 12 13 10 13 13 18 18 18 21 20 18 18 16
15 15 13 13 13 12 10 11 14 17 18 17 16 16 17 19 17 17 14 12 12 12 11 11 14 14 15 14 12 11 10 11 11 10 10 11 13 20 21 20 17 16 11
17 15 13 13 13 12 11 11 12 15 19 21 17 16 17 18 21 18 17 17 16 16 17 14 15 14 15 18 15 16 15 14 13 9 11 13 14 19 17 17 18 19 15
16 15 14 14 14 13 11 11 12 16 19 19 16 16 19 19 21 21 21 18 18 20 17 16 17 15 18 20 15 14 15 14 14 12 12 13 13 16 19 15 17 19 17
15 15 16 15 14 13 12 11 11 13 15 15 14 13 14 19 19 21 24 22 20 17 17 17 16 18 17 18 16 14 13 12 12 13 13 13 12 12 13 14 13 15 18
16 15 15 14 14 13 12 11 11 11 12 14 16 12 11 15 17 16 21 27 23 19 19 18 20 22 19 19 18 12 11 13 15 15 15 16 16 17 16 17 17 17 18
15 15 15 10 7 17 13 11 11 12 13 13 13 13 13 13 15 19 18 24 18 19 15 18 19 22 20 18 18 17 15 16 16 15 15 16 17 16 13 14 15 15 16
16 18 16 17 11 21 17 14 12 13 13 13 12 12 13 12 12 12 19 22 24 18 12 13 18 17 19 16 16 19 18 19 18 18 17 17 17 17 18 17 17 18 18
19 18 21 22 14 12 24 15 14 17 15 15 15 17 15 14 15 17 18 21 18 17 16 16 17 18 18 18 19 19 20 20 20 19 19 19 19 19 19 15 17 17 18
21 19 19 19 14 16 19 14 19 18 16 19 15 8 13 12 16 19 20 20 20 18 19 17 19 20 20 19 21 22 22 22 22 21 21 20 20 20 19 19 20 19 18
21 20 17 18 17 15 17 17 15 18 22 17 21 15 13 12 17 20 21 20 19 18 17 18 18 19 20 19 20 20 20 21 21 23 22 22 20 20 18 19 20 22 23
19 21 20 19 19 15 18 19 16 15 16 21 22 22 21 17 16 19 20 21 15 18 21 23 21 20 21 21 20 21 19 19 21 21 22 23 23 23 23 23 23 21 20
19 17 14 15 14 15 15 16 17 16 18 18 19 25 26 23 22 19 21 22 22 23 25 24 23 23 22 22 22 23 21 22 23 21 24 23 23 24 25 26 26 26 25
19 19 16 11 12 15 15 15 13 16 17 20 18 20 23 23 21 20 21 23 25 24 24 25 25 23 23 22 22 21 22 23 23 23 24 23 24 25 26 27 28 27 28
17 17 10 12 14 11 11 12 12 15 17 21 21 20 19 23 25 26 26 28 28 27 25 23 23 24 25 26 25 25 26 25 25 25 26 26 26 27 29 30 31 31 31
16 14 10 12 13 13 13 16 15 16 16 18 20 19 22 22 21 23 24 24 25 26 26 25 26 26 25 25 25 25 26 29 24 25 26 26 28 29 30 32 32 32 29
11 9 8 11 11 9 8 10 11 13 13 18 14 14 22 23 24 23 23 24 25 22 24 26 28 28 27 27 25 25 25 24 25 26 25 28 32 28 28 28 29 30 30
8 8 9 6 9 11 10 9 9 14 15 15 15 15 16 16 20 28 26 18 17 22 26 26 26 27 25 24 21 19 24 27 25 26 28 29 26 28 32 34 30 32 33
7 6 7 9 6 4 4 8 12 17 17 18 17 15 11 11 13 20 17 18 23 23 23 22 22 24 24 21 18 17 20 25 24 22 23 25 29 31 32 31 30 33 34
13 12 11 10 6 3 8 12 14 15 17 14 19 16 16 19 22 24 22 21 16 14 12 6 5 6 4 2 11 16 20 21 23 26 28 27 28 31 29 29 33 35 34
Wind_Direction
214 228 245 263 272 274 272 272 270 268 262 258 253 248 246 245 239 227 225 221 223 229 250 239 240 233 214 203 209 209 216 212 226 219 216 197 187 170 179 164 184 183 198
217 232 253 268 278 280 277 276 275 271 266 259 249 243 240 233 219 215 212 212 223 239 244 238 236 240 232 226 211 214 206 210 196 166 180 192 166 162 168 172 186 197 203
226 243 260 275 282 285 285 280 275 268 268 260 253 248 230 201 210 221 226 234 247 239 244 235 234 223 215 206 190 198 191 196 187 163 153 160 153 167 177 182 190 206 202
245 259 269 278 284 291 290 285 273 266 265 262 238 215 215 227 221 229 232 236 233 225 222 213 212 198 197 185 181 178 172 169 175 159 152 165 166 177 179 180 191 197 207
253 264 269 274 279 290 292 282 270 254 262 228 231 234 232 220 211 199 210 211 219 215 207 220 210 204 189 177 173 183 167 169 165 168 160 174 183 180 183 187 203 202 199
254 263 269 267 273 287 295 279 263 260 232 202 213 223 210 200 203 195 197 205 219 223 223 230 213 205 202 196 202 178 185 178 183 186 181 183 187 188 182 193 202 190 190
259 267 267 269 275 282 290 271 256 249 225 223 229 223 211 207 210 203 201 230 229 229 231 227 205 197 186 185 197 195 184 184 193 201 202 193 183 182 179 188 194 193 202
261 261 261 264 271 279 280 269 266 258 235 227 232 229 216 203 205 204 201 208 224 228 223 220 203 194 184 181 180 185 188 190 184 190 193 189 180 177 179 186 181 190 200
259 257 252 251 258 264 270 267 259 239 230 225 232 223 218 215 219 210 202 205 215 221 219 222 211 198 191 183 184 191 190 181 175 175 166 173 163 173 180 179 185 192 204
268 260 247 239 245 251 255 252 251 245 231 221 218 218 218 214 226 215 210 209 214 220 213 214 212 210 197 187 193 198 193 188 172 166 163 167 167 178 187 203 202 214 221
280 260 241 233 233 240 243 244 244 243 241 234 231 226 213 219 214 216 211 211 212 213 209 200 207 203 199 197 197 203 200 184 190 186 190 191 189 191 197 208 224 225 223
280 261 251 248 249 239 231 236 235 228 230 225 231 239 224 220 214 214 219 216 211 205 205 207 204 201 200 197 197 200 204 194 200 208 211 209 207 210 211 214 219 222 235
280 263 249 236 263 256 243 224 231 232 226 220 221 224 227 216 225 228 225 219 206 209 211 215 210 201 204 200 202 208 208 210 225 225 223 224 221 221 218 202 215 223 233
275 256 225 215 207 229 233 226 224 228 226 229 219 212 207 197 204 205 200 201 214 217 215 200 190 194 201 207 210 212 215 220 225 233 234 231 223 222 213 225 217 214 224
269 252 250 262 198 250 236 212 207 232 227 224 219 211 204 202 201 194 187 196 196 195 190 187 190 196 202 208 213 213 218 225 230 238 238 232 229 225 226 218 226 226 226
273 257 250 237 230 215 232 219 219 224 218 222 233 226 206 211 202 197 200 194 200 198 201 207 208 212 214 215 218 221 226 224 230 230 232 235 233 226 222 220 224 227 233
273 263 253 225 250 230 229 213 215 211 223 220 222 216 215 210 208 205 205 202 203 203 217 223 218 216 218 222 227 227 230 228 228 233 232 231 226 231 234 240 236 221 230
281 267 255 240 237 230 228 228 221 205 205 217 226 218 217 211 201 202 203 195 199 210 222 225 222 227 227 222 223 227 223 226 218 225 229 232 233 232 232 233 235 249 237
282 280 266 240 230 235 232 232 226 213 224 227 207 208 212 211 211 208 204 202 210 211 217 230 229 229 223 227 232 237 234 235 241 230 222 228 232 234 238 241 243 237 228
287 274 269 262 243 234 230 239 243 224 223 233 221 206 189 193 198 201 204 214 228 227 223 219 224 228 235 238 240 233 234 232 236 232 238 237 234 238 238 238 239 242 238
296 284 273 249 240 227 227 216 236 243 237 237 226 222 202 191 205 211 213 217 221 228 229 230 225 226 232 237 238 238 240 241 237 234 236 235 237 239 239 242 244 241 238
296 279 258 235 246 233 236 247 237 233 241 248 244 215 199 205 211 209 212 215 220 225 229 231 236 241 242 237 236 242 249 252 248 243 238 238 245 246 243 243 240 241 241
297 266 256 248 250 253 232 232 225 232 241 247 249 257 187 206 225 230 221 219 221 224 231 237 241 242 240 240 245 243 244 245 247 248 242 239 248 247 246 248 243 240 237
322 311 294 251 242 230 211 203 231 239 239 237 232 237 254 243 231 228 238 244 242 240 242 243 243 245 248 252 254 246 242 251 249 250 247 252 252 249 247 247 245 241 241
341 339 313 289 274 207 204 227 248 253 240 227 221 226 249 267 267 248 246 242 251 253 253 255 249 247 246 244 245 252 253 249 255 255 250 255 259 260 257 253 248 244 246
357 359 1 355 343 293 273 284 284 276 230 223 218 222 217 224 245 250 250 242 239 245 253 266 253 226 201 230 243 255 261 267 262 263 266 261 259 258 255 259 260 257 253